Regional Weather Roundup
Issued by NWS

Home | Current Version | Previous Version | Text Only | Print | Product List | Glossary On
Versions: 1 2 3 4 5 6 7 8 9 10 11 12 13 14 15 16 17 18 19 20 21 22 23 24 25 26 27 28 29 30 31 32 33 34 35 36 37 38 39 40 41 42 43 44 45
000
ASPQ40 PGUM 271814
RWRPQ
WEATHER ROUNDUP FOR THE MARIANAS AND MICRONESIA
NATIONAL WEATHER SERVICE TIYAN GU
400 AM CHST THU MAY 28 2015

GUZ001>004-271900-
MARIANA ISLANDS-

CITY           SKY/WX    TMP DP  RH WIND       PRES   REMARKS
GUAM AIRPORT   LGT RAIN  77  75  94 SE5       29.82F
ANDERSEN AFB   DRIZZLE   77  75  94 SE8       29.83S
ROTA AIRPORT   NOT AVBL
TINIAN AP      NOT AVBL
SAIPAN AP      PTCLDY    79  75  89 E9        29.82S

$$

PMZ161-271900-
REPUBLIC OF PALAU-

CITY           SKY/WX    TMP DP  RH WIND       PRES   REMARKS
KOROR AP       PTCLDY    75  75 100 CALM      29.81F
KOROR WSO      PTCLDY    81  77  89 CALM      29.80F

$$

PMZ171>174-271900-
FEDERATED STATES OF MICRONESIA-

CITY           SKY/WX    TMP DP  RH WIND       PRES   REMARKS
YAP AIRPORT    NOT AVBL
CHUUK AP       MOCLDY    79  75  89 CALM      29.79S
POHNPEI AP     NOT AVBL
POHNPEI WSO    LGT RAIN  77  75  94 CALM      29.86R
KOSRAE AP      NOT AVBL

$$

PMZ181-271900-
REPUBLIC OF THE MARSHALL ISLANDS-

CITY           SKY/WX    TMP DP  RH WIND       PRES   REMARKS
KWAJALEIN AP   RAIN      79  73  83 E5        29.87S
MAJURO AP      NOT AVBL
MAJURO WSO     MOCLDY    81  77  89 SE8       29.85R

$$



USA.gov is the U.S. government's official web portal to all federal, state and local government web resources and services.